This is the latest recevied weather packets stored in our database for station/object E27ASY-4. If no packets are shown the sender has not sent any weather packets the latest 10 day(s).
| Time | Temp. | Humidity | Pressure | Rain* | Wind** | Luminosity | Snow |
|---|---|---|---|---|---|---|---|
| 1777957978 | 38.89° C | 46% | 1008 hPa | - | - | 0 W/m² | - |
| 1777957657 | 38.89° C | 47% | 1008 hPa | - | - | 0 W/m² | - |
| 1777957334 | 38.89° C | 48% | 1008 hPa | - | - | 0 W/m² | - |
| 1777957013 | 38.33° C | 50% | 1008 hPa | - | - | 0 W/m² | - |
| 1777956691 | 38.33° C | 49% | 1008 hPa | - | - | 0 W/m² | - |
| 1777956369 | 37.78° C | 50% | 1008 hPa | - | - | 0 W/m² | - |
| 1777956046 | 38.89° C | 47% | 1008 hPa | - | - | 0 W/m² | - |
| 1777955725 | 38.33° C | 52% | 1008 hPa | - | - | 0 W/m² | - |
| 1777955402 | 38.33° C | 50% | 1008 hPa | - | - | 0 W/m² | - |
| 1777955081 | 37.78° C | 57% | 1008 hPa | - | - | 0 W/m² | - |
| 1777954759 | 37.22° C | 54% | 1008 hPa | - | - | 0 W/m² | - |
| 1777954437 | 37.22° C | 60% | 1008 hPa | - | - | 0 W/m² | - |
| 1777954115 | 37.78° C | 60% | 1008 hPa | - | - | 0 W/m² | - |
| 1777953793 | 37.78° C | 63% | 1008 hPa | - | - | 0 W/m² | - |
| 1777953471 | 37.22° C | 64% | 1008 hPa | - | - | 0 W/m² | - |
| 1777953148 | 37.22° C | 64% | 1009 hPa | - | - | 0 W/m² | - |
| 1777952826 | 36.67° C | 66% | 1009 hPa | - | - | 0 W/m² | - |
| 1777952505 | 36.11° C | 70% | 1009 hPa | - | - | 0 W/m² | - |
| 1777952183 | 35.56° C | 71% | 1009 hPa | - | - | 0 W/m² | - |
| 1777951860 | 35.56° C | 70% | 1009 hPa | - | - | 0 W/m² | - |
| 1777951539 | 35.56° C | 72% | 1009 hPa | - | - | 0 W/m² | - |
| 1777951216 | 36.11° C | 74% | 1009 hPa | - | - | 0 W/m² | - |
| 1777950894 | 35.56° C | 73% | 1009 hPa | - | - | 0 W/m² | - |
| 1777950572 | 35.56° C | 74% | 1009 hPa | - | - | 0 W/m² | - |
| 1777950250 | 35° C | 71% | 1009 hPa | - | - | 0 W/m² | - |
* Rain since midnight (hover to see other rain measurements)
** Current wind speed in m/s (hover to see current wind gust speed)